Location: Shepherdstown, WV
(39.4326°N, 77.8042°W)
Time: 23:47:38
(UTC-04:00)

SR - Visible Passes

Search period start: 25 July 2021 00:00
Search period end: 04 August 2021 00:00
Orbit: 577 x 878 km, 66.7° (Epoch: 25 July)

Date Brightness Start Highest point End Pass type
(mag) Time Alt. Az. Time Alt. Az. Time Alt. Az.
31 Jul ? 05:36:00 10° SE 05:38:05 12° ESE 05:40:08 10° E visible
02 Aug ? 05:35:39 10° SSE 05:40:08 23° ESE 05:44:29 10° ENE visible
03 Aug ? 04:49:18 10° ESE 04:50:43 11° ESE 04:52:06 10° E visible
